Location: Amsterdam
(30.7274°N, 84.4357°W)
Time: 18:55:55
(UTC+00:00)

Altair - Pass Details

Date: 12 August 2024
Orbit: 1501 x 1682 km, 47.2° (Epoch: 07 September)

Event Time Altitude Azimuth Distance (km) Brightness Sun altitude
Rises 17:37:07 0° 251° (WSW) 4,905 10.2 73.9°
Reaches altitude 10° 17:40:27 10° 257° (WSW) 3,903 9.8 73.9°
Maximum altitude 17:50:04 51° 331° (NNW) 1,976 8.7 73.8°
Drops below altitude 10° 17:59:23 10° 45° (NE) 3,777 9.5 73.5°
Sets 18:02:35 0° 51° (NE) 4,738 9.9 73.3°
